{"data":{"norad_id":58276,"epoch":"2026-05-25T03:57:13.788288Z","epoch_age_seconds":67921,"freshness":"FRESH","line1":"1 58276U 23174W   26145.16474292  .00009759  00000+0  29740-3 0  9992","line2":"2 58276  97.3673 223.0269 0005141 262.5357  97.5302 15.34161154141441","mean_motion":15.34161154,"eccentricity":0.0005141,"inclination_deg":97.3673,"raan_deg":223.0269,"arg_perigee_deg":262.5357,"mean_anomaly_deg":97.5302,"bstar":0.0002974,"rev_number":14144,"period_min":93.862368776938,"perigee_km":459.89599197804,"apogee_km":466.93047392757,"semimajor_km":6841.5502329528,"source":"CELESTRAK","updated_at":"2026-05-25T13:38:00.642299Z"}}